Mount Shasta, CA

7:04 AM PDT on April 23, 2018 (GMT -0700)
Mount Shasta

Weather History for KMHS - September, 2014

Change the Weather History Date:

Friday, September 19, 2014

  Actual Average Record
Temperature  
Mean Temperature 67 °F 60 °F  
Max Temperature 83 °F 77 °F 93 °F (1974)
Min Temperature 51 °F 42 °F 26 °F (1965)
Degree Days  
Heating Degree Days 0 6  
Month to date heating degree days 9 82  
Since 1 July heating degree days 14 157  
Cooling Degree Days 2 1  
Month to date cooling degree days 38 20  
Year to date cooling degree days 536 280  
Growing Degree Days 17 (Base 50)    
Moisture  
Dew Point 49 °F    
Average Humidity 60    
Maximum Humidity 89    
Minimum Humidity 31    
Precipitation  
Precipitation 0.00 in 0.03 in 1.08 in (1977)
Month to date precipitation 0.14 0.38  
Year to date precipitation 12.42 27.71  
Sea Level Pressure  
Sea Level Pressure 30.03 in    
Wind  
Wind Speed 3 mph (NNW)    
Max Wind Speed 12 mph    
Max Gust Speed 21 mph    
Visibility 10 miles    
Events      
T = Trace of Precipitation, MM = Missing Value Source: NWS Daily Summary

Daily Weather History Graph

Daily Weather History Graph

Search for Another Location

Airport or City:

Astronomy

Sep. 19, 2014 Rise Set
Actual Time 6:53 AM PDT 7:11 PM PDT
Civil Twilight 6:26 AM PDT 7:39 PM PDT
Nautical Twilight 5:53 AM PDT 8:11 PM PDT
Astronomical Twilight 5:20 AM PDT 8:44 PM PDT
Moon 2:41 AM PDT (9/19) 4:45 PM PDT (9/19)
Length of Visible Light 13h 12m
Length of Day
12h 17m
Waning Crescent, 17% of the Moon is Illuminated
Sep 19
Waning Crescent
Sep 23
New
Oct 1
First Quarter
Oct 8
Full
Oct 15
Last Quarter

Hourly Weather History & Observations

Time (PDT) Temp. Dew Point Humidity Pressure Visibility Wind Dir Wind Speed Gust Speed Precip Events Conditions
12:56 AM 53.1 °F 48.0 °F 83% 30.04 in 10.0 mi NE 3.5 mph - N/A   Clear
1:56 AM 57.9 °F 50.0 °F 75% 30.03 in 10.0 mi Variable 4.6 mph - N/A   Clear
2:56 AM 57.0 °F 51.1 °F 81% 30.03 in 10.0 mi Calm Calm - N/A   Clear
3:56 AM 57.0 °F 51.1 °F 81% 30.04 in 10.0 mi Variable 3.5 mph - N/A   Clear
4:56 AM 55.0 °F 50.0 °F 83% 30.04 in 10.0 mi Calm Calm - N/A   Clear
5:56 AM 53.1 °F 50.0 °F 89% 30.06 in 10.0 mi Calm Calm - N/A   Clear
6:56 AM 52.0 °F 48.9 °F 89% 30.08 in 10.0 mi Calm Calm - N/A   Clear
7:56 AM 55.0 °F 51.1 °F 86% 30.10 in 10.0 mi Calm Calm - N/A   Clear
8:56 AM 62.1 °F 52.0 °F 70% 30.09 in 10.0 mi Calm Calm - N/A   Clear
9:56 AM 68.0 °F 52.0 °F 56% 30.09 in 10.0 mi WNW 6.9 mph - N/A   Clear
10:56 AM 70.0 °F 52.0 °F 53% 30.08 in 10.0 mi NW 8.1 mph - N/A   Clear
11:56 AM 72.0 °F 51.1 °F 48% 30.07 in 10.0 mi West 9.2 mph 20.7 mph N/A   Clear
12:56 PM 75.9 °F 50.0 °F 40% 30.04 in 10.0 mi WNW 9.2 mph - N/A   Clear
1:56 PM 79.0 °F 50.0 °F 36% 30.00 in 10.0 mi Variable 4.6 mph - N/A   Clear
2:56 PM 81.0 °F 48.9 °F 33% 29.98 in 10.0 mi Variable 6.9 mph - N/A   Clear
3:56 PM 82.0 °F 48.9 °F 31% 29.96 in 10.0 mi WNW 4.6 mph - N/A   Clear
4:56 PM 80.1 °F 48.0 °F 32% 29.96 in 10.0 mi Variable 4.6 mph - N/A   Clear
5:56 PM 79.0 °F 48.0 °F 34% 29.96 in 10.0 mi Variable 4.6 mph - N/A   Clear
6:56 PM 73.0 °F 46.9 °F 39% 29.97 in 10.0 mi NNW 3.5 mph - N/A   Clear
7:56 PM 66.9 °F 48.9 °F 52% 29.99 in 10.0 mi Calm Calm - N/A   Clear
8:56 PM 63.0 °F 48.0 °F 58% 30.00 in 10.0 mi Calm Calm - N/A   Clear
9:56 PM 60.1 °F 48.0 °F 64% 30.01 in 10.0 mi NE 3.5 mph - N/A   Clear
10:56 PM 59.0 °F 46.9 °F 64% 30.02 in 10.0 mi NE 3.5 mph - N/A   Clear
11:56 PM 57.9 °F 46.9 °F 67% 30.03 in 10.0 mi ENE 3.5 mph - N/A   Clear